When you browse on this site, cookies collect data to enhance your experience and personalize the content and advertising you see.
Visit our Privacy Policy to learn more. By continuing to use the site, you agree to this use of cookies and data.
  • In Deutschland
  • Länderverzeichnis
  • Für 7 Tage
  • Wassertemperatur
  • Satellitenkarten
  • Wetterkarte
  • Widgets
  • user-avatar
    Anmelden

    Stündliche Wetter Nordhorn

    Heute, 21 Januar, Montag

    Zeit Temperatur Niederschläge Wind Luftdruck Luftfeuchtigkeit
    00:00 -3°C° 0 mm 0 m/S 765 mmHg 63%
    01:00 -2°C° 0 mm 1 m/S 765 mmHg 62%
    02:00 -2°C° 0 mm 1 m/S 765 mmHg 62%
    03:00 -2°C° 0 mm 1 m/S 764 mmHg 61%
    04:00 -2°C° 0 mm 1 m/S 764 mmHg 62%
    05:00 -2°C° 0 mm 1 m/S 764 mmHg 62%
    06:00 -2°C° 0 mm 1 m/S 764 mmHg 63%
    07:00 -1°C° 0 mm 1 m/S 764 mmHg 63%
    08:00 -3°C° 0 mm 2 m/S 764 mmHg 63%
    09:00 -3°C° 0 mm 2 m/S 764 mmHg 63%
    10:00 -2°C° 0 mm 2 m/S 764 mmHg 61%
    11:00 -1°C° 0 mm 2 m/S 764 mmHg 59%
    12:00 0°C° 0 mm 3 m/S 763 mmHg 57%
    13:00 0°C° 0 mm 3 m/S 763 mmHg 59%
    14:00 0°C° 0 mm 3 m/S 763 mmHg 61%
    15:00 0°C° 0 mm 3 m/S 763 mmHg 62%
    16:00 -1°C° 0 mm 3 m/S 762 mmHg 63%
    17:00 -1°C° 0 mm 3 m/S 762 mmHg 64%
    18:00 -2°C° 0 mm 3 m/S 762 mmHg 65%
    19:00 -2°C° 0 mm 3 m/S 761 mmHg 66%
    20:00 -2°C° 0 mm 3 m/S 761 mmHg 66%
    21:00 -2°C° 0 mm 3 m/S 761 mmHg 67%
    22:00 -2°C° 0 mm 3 m/S 760 mmHg 66%
    23:00 -2°C° 0 mm 3 m/S 760 mmHg 66%

    Morgen, 22 Januar, Dienstag

    Zeit Temperatur Niederschläge Wind Luftdruck Luftfeuchtigkeit
    00:00 -4°C° 0 mm 4 m/S 759 mmHg 65%
    01:00 -4°C° 0 mm 4 m/S 758 mmHg 63%
    02:00 -4°C° 0 mm 4 m/S 758 mmHg 60%
    03:00 -4°C° 0 mm 4 m/S 757 mmHg 58%
    04:00 -4°C° 0 mm 4 m/S 756 mmHg 57%
    05:00 -5°C° 0 mm 5 m/S 755 mmHg 55%
    06:00 -4°C° 0 mm 5 m/S 754 mmHg 54%
    07:00 -4°C° 0 mm 5 m/S 753 mmHg 53%
    08:00 -4°C° 0 mm 6 m/S 753 mmHg 51%
    09:00 -3°C° 0 mm 6 m/S 752 mmHg 50%
    10:00 -3°C° 0 mm 6 m/S 751 mmHg 49%
    11:00 -2°C° 0 mm 6 m/S 750 mmHg 48%
    12:00 -1°C° 0 mm 6 m/S 750 mmHg 48%
    13:00 -2°C° 0.1 mm 6 m/S 749 mmHg 57%
    14:00 -2°C° 0.1 mm 6 m/S 749 mmHg 66%
    15:00 -2°C° 0.1 mm 6 m/S 749 mmHg 76%
    16:00 -2°C° 0.2 mm 5 m/S 749 mmHg 80%
    17:00 -2°C° 0.2 mm 5 m/S 748 mmHg 85%
    18:00 -2°C° 0.2 mm 5 m/S 748 mmHg 89%
    19:00 -2°C° 0.2 mm 4 m/S 748 mmHg 91%
    20:00 -2°C° 0.2 mm 4 m/S 748 mmHg 92%
    21:00 -1°C° 0.2 mm 3 m/S 748 mmHg 94%
    22:00 -1°C° 0.2 mm 3 m/S 748 mmHg 95%
    23:00 -1°C° 0.2 mm 2 m/S 748 mmHg 95%

    übermorgen, 23 Januar, Mittwoch

    Zeit Temperatur Niederschläge Wind Luftdruck Luftfeuchtigkeit
    00:00 -1°C° 0.2 mm 2 m/S 748 mmHg 96%
    01:00 +1°C° 0.1 mm 1 m/S 748 mmHg 96%
    02:00 0°C° 0.1 mm 1 m/S 748 mmHg 96%
    03:00 0°C° 0.1 mm 1 m/S 748 mmHg 96%
    04:00 0°C° 0.1 mm 1 m/S 748 mmHg 96%
    05:00 0°C° 0.1 mm 1 m/S 748 mmHg 96%
    06:00 -1°C° 0.1 mm 0 m/S 748 mmHg 96%
    07:00 +1°C° 0.1 mm 1 m/S 749 mmHg 95%
    08:00 +1°C° 0.1 mm 1 m/S 749 mmHg 93%
    09:00 +1°C° 0.1 mm 1 m/S 750 mmHg 92%
    10:00 +1°C° 0 mm 1 m/S 750 mmHg 91%
    11:00 +1°C° 0 mm 1 m/S 750 mmHg 89%
    12:00 +2°C° 0 mm 1 m/S 750 mmHg 88%
    13:00 +2°C° 0 mm 1 m/S 750 mmHg 88%
    14:00 -1°C° 0 mm 2 m/S 751 mmHg 88%
    15:00 -1°C° 0 mm 2 m/S 751 mmHg 88%
    16:00 -1°C° 0 mm 2 m/S 752 mmHg 88%
    17:00 -2°C° 0 mm 2 m/S 752 mmHg 88%
    18:00 -3°C° 0 mm 2 m/S 753 mmHg 88%
    19:00 -3°C° 0 mm 2 m/S 753 mmHg 87%
    20:00 -3°C° 0 mm 2 m/S 754 mmHg 86%
    21:00 -3°C° 0 mm 2 m/S 754 mmHg 86%
    22:00 -4°C° 0 mm 2 m/S 755 mmHg 85%
    23:00 -4°C° 0 mm 2 m/S 755 mmHg 84%

    24 Januar, Donnerstag

    Zeit Temperatur Niederschläge Wind Luftdruck Luftfeuchtigkeit
    00:00 -4°C° 0 mm 2 m/S 756 mmHg 83%
    01:00 -4°C° 0 mm 2 m/S 756 mmHg 82%
    02:00 -4°C° 0 mm 2 m/S 756 mmHg 81%
    03:00 -4°C° 0 mm 2 m/S 757 mmHg 81%
    04:00 -2°C° 0 mm 1 m/S 757 mmHg 80%
    05:00 -2°C° 0 mm 1 m/S 758 mmHg 79%
    06:00 -2°C° 0 mm 1 m/S 758 mmHg 79%
    07:00 -2°C° 0 mm 1 m/S 758 mmHg 77%
    08:00 -1°C° 0 mm 1 m/S 759 mmHg 76%
    09:00 -1°C° 0 mm 1 m/S 759 mmHg 74%
    10:00 -1°C° 0 mm 0 m/S 760 mmHg 72%
    11:00 -1°C° 0 mm 0 m/S 760 mmHg 71%
    12:00 0°C° 0 mm 0 m/S 760 mmHg 69%
    13:00 0°C° 0 mm 0 m/S 760 mmHg 73%
    14:00 0°C° 0 mm 0 m/S 760 mmHg 77%
    15:00 +1°C° 0 mm 1 m/S 760 mmHg 81%
    16:00 0°C° 0 mm 1 m/S 760 mmHg 84%
    17:00 0°C° 0 mm 1 m/S 761 mmHg 87%
    18:00 0°C° 0 mm 1 m/S 761 mmHg 90%
    19:00 0°C° 0 mm 1 m/S 761 mmHg 91%
    20:00 0°C° 0 mm 1 m/S 762 mmHg 92%
    21:00 0°C° 0 mm 1 m/S 762 mmHg 94%
    22:00 -2°C° 0 mm 2 m/S 762 mmHg 94%
    23:00 -2°C° 0 mm 2 m/S 762 mmHg 94%

    25 Januar, Freitag

    Zeit Temperatur Niederschläge Wind Luftdruck Luftfeuchtigkeit
    00:00 -2°C° 0 mm 2 m/S 762 mmHg 94%
    01:00 -2°C° 0 mm 2 m/S 762 mmHg 94%
    02:00 -4°C° 0 mm 3 m/S 761 mmHg 94%
    03:00 -4°C° 0 mm 3 m/S 761 mmHg 95%
    04:00 -2°C° 0 mm 3 m/S 761 mmHg 94%
    05:00 -3°C° 0 mm 4 m/S 760 mmHg 93%
    06:00 -4°C° 0 mm 5 m/S 760 mmHg 92%
    07:00 -4°C° 0.1 mm 5 m/S 760 mmHg 90%
    08:00 -2°C° 0.1 mm 5 m/S 760 mmHg 88%
    09:00 -3°C° 0.1 mm 6 m/S 760 mmHg 86%
    10:00 -2°C° 0.3 mm 6 m/S 759 mmHg 87%
    11:00 -2°C° 0.3 mm 7 m/S 759 mmHg 88%
    12:00 -2°C° 0.3 mm 7 m/S 758 mmHg 89%
    13:00 -2°C° 0.3 mm 7 m/S 758 mmHg 91%
    14:00 -2°C° 0.3 mm 7 m/S 757 mmHg 92%
    15:00 -2°C° 0.3 mm 7 m/S 756 mmHg 94%
    16:00 -1°C° 0.1 mm 7 m/S 756 mmHg 95%
    17:00 -1°C° 0.1 mm 7 m/S 756 mmHg 96%
    18:00 -1°C° 0.1 mm 7 m/S 755 mmHg 97%
    19:00 0°C° 0.3 mm 7 m/S 755 mmHg 97%
    20:00 0°C° 0.3 mm 7 m/S 755 mmHg 97%
    21:00 +2°C° 0.3 mm 7 m/S 755 mmHg 97%
    22:00 +2°C° 0.7 mm 6 m/S 755 mmHg 97%
    23:00 +2°C° 0.7 mm 5 m/S 755 mmHg 98%

    26 Januar, Samstag

    Zeit Temperatur Niederschläge Wind Luftdruck Luftfeuchtigkeit
    00:00 +3°C° 0.7 mm 4 m/S 755 mmHg 98%
    01:00 +1°C° 0 mm 4 m/S 754 mmHg 98%
    02:00 +2°C° 0 mm 3 m/S 754 mmHg 98%
    03:00 +1°C° 0 mm 3 m/S 754 mmHg 97%
    04:00 +1°C° 0 mm 3 m/S 754 mmHg 97%
    05:00 +1°C° 0 mm 3 m/S 753 mmHg 97%
    06:00 +1°C° 0 mm 3 m/S 753 mmHg 97%
    07:00 +1°C° 0 mm 3 m/S 753 mmHg 97%
    08:00 +1°C° 0 mm 3 m/S 752 mmHg 98%
    09:00 +1°C° 0 mm 3 m/S 752 mmHg 98%
    10:00 +1°C° 0.2 mm 3 m/S 751 mmHg 98%
    11:00 +2°C° 0.2 mm 3 m/S 751 mmHg 98%
    12:00 +1°C° 0.2 mm 4 m/S 750 mmHg 98%
    13:00 +1°C° 0.2 mm 4 m/S 749 mmHg 97%
    14:00 +2°C° 0.2 mm 5 m/S 748 mmHg 97%
    15:00 +2°C° 0.2 mm 6 m/S 747 mmHg 96%
    16:00 +2°C° 1.3 mm 6 m/S 746 mmHg 96%
    17:00 +2°C° 1.3 mm 6 m/S 745 mmHg 95%
    18:00 +2°C° 1.3 mm 6 m/S 745 mmHg 95%
    19:00 +2°C° 0.7 mm 6 m/S 744 mmHg 94%
    20:00 +1°C° 0.7 mm 6 m/S 743 mmHg 93%
    21:00 +1°C° 0.7 mm 6 m/S 743 mmHg 92%
    22:00 +1°C° 0.2 mm 6 m/S 742 mmHg 92%
    23:00 +1°C° 0.2 mm 5 m/S 741 mmHg 91%
    Mehr zeigen